Wetbulb
57.11 58.61 60.09 60.71 61.22 61.20 60.65 59.54 58.89 57.89 57.74 58.47 58.69 59.47 60.94 62.44 62.85 60.16 54.58 59.72 61.19 63.56 62.18 60.07 58.63 58.41 58.41 56.19 56.97 58.32 49.51 45.75 47.54 47.72 49.25 53.78 52.12 55.37 56.45 54.51 55.52 57.04 57.16 59.66 62.16
55.20 56.66 57.80 59.31 60.28 60.65 60.69 59.92 59.18 58.25 57.94 58.46 58.77 59.53 60.84 62.22 58.59 55.27 60.68 61.67 62.54 63.62 59.41 56.83 54.54 55.93 53.78 53.94 54.70 52.41 47.31 47.29 51.17 51.75 51.11 52.74 52.91 53.88 53.45 53.36 53.47 55.90 58.50 59.61 61.36
53.51 54.43 55.89 57.57 59.15 59.76 60.30 60.17 59.24 58.33 58.39 58.38 58.97 59.27 60.24 61.33 54.18 55.09 64.71 63.34 63.94 63.68 60.88 58.55 56.96 54.53 50.80 53.12 52.68 51.81 47.10 50.83 51.72 53.61 54.24 52.89 52.60 54.63 52.85 51.87 54.35 54.22 56.86 58.98 59.39
52.85 53.16 54.14 55.64 56.92 58.36 59.52 60.27 59.35 58.51 58.34 58.33 58.32 58.97 59.90 58.65 45.48 58.95 61.66 63.18 64.68 63.29 59.76 57.09 54.98 51.49 49.61 48.36 51.88 47.88 50.80 51.57 52.54 53.37 53.14 51.86 53.78 52.27 53.42 53.82 56.72 57.32 58.58 59.08 58.85
52.45 52.20 52.87 54.09 55.25 56.59 58.01 59.51 59.79 58.16 58.19 58.21 57.60 58.72 57.40 52.68 51.83 59.68 59.06 60.58 63.17 61.13 57.43 55.15 52.83 51.97 48.30 50.26 50.91 48.86 50.15 51.05 52.15 52.53 52.64 53.45 51.68 52.25 53.36 56.48 57.53 57.78 58.02 58.28 58.63
52.50 51.88 51.95 53.23 53.59 54.75 56.66 58.67 59.73 58.26 58.11 58.12 57.47 58.63 54.07 47.71 57.84 58.94 58.27 59.46 59.99 59.92 57.05 56.28 53.76 53.91 50.83 49.83 48.92 50.72 50.32 50.67 51.87 51.63 52.12 50.27 50.50 51.38 52.46 55.47 55.37 55.97 56.50 57.77 58.69
52.17 52.11 51.34 51.87 52.22 53.44 55.17 57.26 58.89 58.40 57.96 58.48 57.91 56.50 51.35 50.52 56.77 57.50 57.95 57.94 60.22 60.06 56.52 57.30 56.16 52.06 51.65 48.13 51.67 50.42 46.75 49.02 49.73 50.32 49.58 51.26 47.10 48.15 52.98 54.14 53.15 54.05 55.23 56.05 57.11
51.65 51.44 51.41 51.37 51.85 52.43 54.05 55.36 56.47 58.40 57.91 58.28 57.67 54.46 47.93 55.61 57.74 54.49 56.66 57.49 59.85 60.57 58.61 57.66 56.49 52.91 50.93 51.44 48.85 45.67 46.68 42.56 48.63 48.94 49.92 48.90 42.32 49.77 53.07 53.27 52.76 53.60 54.13 54.71 55.60
50.83 51.04 51.05 50.84 51.34 52.11 53.29 54.02 55.20 58.29 57.85 57.95 53.68 51.47 45.98 54.33 51.12 55.10 55.82 54.64 56.51 57.40 58.34 57.86 55.11 49.85 48.95 44.47 42.27 43.82 39.82 42.58 45.00 49.29 48.13 47.53 44.97 50.39 52.79 52.40 51.88 53.10 54.13 55.03 55.71
50.51 50.37 50.36 50.61 51.38 52.04 52.82 53.13 54.10 57.08 55.84 54.73 53.04 46.90 49.49 47.31 51.78 53.29 55.42 55.68 52.88 53.12 51.78 50.44 48.75 44.79 44.89 42.87 36.50 39.65 39.55 41.78 41.23 45.57 46.43 44.84 44.77 48.56 50.82 50.92 51.32 52.11 52.71 53.75 54.82
50.06 49.68 49.99 50.06 50.92 51.04 51.13 48.38 49.20 47.51 50.16 46.32 46.86 46.24 48.26 51.65 53.59 51.26 53.39 52.98 51.77 49.24 42.58 45.97 40.77 38.70 42.73 44.09 44.11 41.99 40.44 40.00 43.36 45.97 43.76 42.81 43.52 45.79 48.49 49.07 49.08 49.89 51.11 51.98 52.96
50.00 50.09 49.96 49.87 50.52 50.90 49.74 41.77 44.42 48.27 42.54 48.83 47.95 48.18 50.54 51.70 45.81 49.00 52.94 47.16 45.48 41.68 44.08 40.59 37.40 43.79 45.65 44.31 42.52 41.33 39.07 38.94 42.44 44.65 42.87 41.87 41.49 45.14 46.70 47.31 48.47 48.54 49.20 50.27 51.64
49.97 49.54 49.70 49.86 50.31 49.21 46.90 43.14 48.91 49.27 42.63 44.15 47.47 46.87 47.28 49.40 45.73 46.03 49.39 47.19 44.38 41.56 41.01 39.24 41.27 43.32 42.86 41.26 39.30 39.97 38.45 38.96 38.92 42.21 42.26 40.36 39.12 43.02 46.83 48.14 48.79 49.23 49.72 49.84 50.10
49.32 49.30 49.54 49.57 46.70 47.63 45.34 48.72 50.18 49.27 35.88 38.01 41.46 45.21 47.33 48.44 43.46 50.31 50.82 47.22 43.41 39.57 41.05 40.72 44.27 40.21 40.12 38.79 40.47 36.41 42.40 40.75 38.79 36.70 33.28 40.07 31.62 39.72 43.30 44.53 46.49 47.73 48.55 49.06 49.66
48.63 49.22 49.41 49.02 44.89 43.25 46.87 50.81 49.78 45.79 26.59 38.79 40.88 50.04 47.88 43.77 44.81 45.05 51.09 46.42 40.56 41.29 41.29 38.61 38.64 39.11 37.10 38.56 41.31 37.82 40.73 38.75 38.12 35.92 34.24 35.45 31.86 37.37 42.37 41.06 43.64 46.34 48.14 49.53 50.59
48.78 49.01 48.88 47.35 46.77 47.21 50.17 50.44 46.52 32.18 26.66 34.68 39.94 39.79 39.59 42.42 42.88 45.01 44.68 47.74 46.33 40.92 41.53 40.33 43.15 41.48 40.83 41.63 41.76 41.47 38.38 36.97 36.40 32.99 26.55 33.64 34.30 35.18 39.04 41.03 42.58 45.30 46.98 48.30 49.66
49.15 50.10 49.38 49.23 41.29 50.43 50.19 45.68 31.14 29.87 37.58 33.40 34.46 38.97 38.23 36.78 38.89 40.19 39.10 38.35 36.90 32.09 32.80 37.55 38.22 41.21 42.11 37.70 40.45 38.80 33.26 29.78 27.29 26.21 26.68 37.10 33.95 36.41 41.80 43.45 43.93 44.25 46.48 47.62 48.93
50.49 50.24 49.34 48.20 49.66 51.13 44.67 37.25 27.51 35.17 35.07 38.62 37.87 37.74 34.34 37.03 37.84 38.53 37.31 35.12 39.59 38.58 35.90 30.92 32.08 38.38 41.12 38.45 36.71 34.73 34.25 29.87 23.37 26.52 30.00 36.88 30.88 36.09 43.51 45.06 45.31 46.04 46.97 47.87 48.99
50.20 48.33 46.68 48.70 50.69 48.30 40.70 29.05 33.01 35.96 38.23 36.40 36.17 33.35 34.12 36.69 38.23 38.09 36.55 36.31 39.29 40.43 34.09 33.28 31.68 40.29 41.10 41.29 40.34 35.43 31.05 38.07 30.62 32.13 27.43 31.44 36.05 40.82 42.73 42.76 44.14 44.76 45.79 46.46 48.80
45.91 44.31 44.35 49.74 49.46 45.33 37.68 33.57 34.79 40.60 40.87 39.65 33.01 35.83 31.18 33.85 35.31 35.63 35.75 40.26 38.17 41.87 43.08 37.46 31.14 37.74 39.64 41.10 41.30 38.31 39.87 29.52 31.16 22.46 22.81 30.30 32.40 33.65 38.80 40.48 42.69 43.45 44.79 46.15 48.86
45.26 38.70 45.62 50.01 49.10 40.59 33.30 34.71 38.17 42.59 42.64 38.80 36.92 35.64 36.18 34.45 36.72 35.23 36.29 40.06 42.28 41.68 42.40 39.45 35.33 33.80 36.63 34.88 35.23 34.67 32.82 33.91 33.92 31.81 25.37 24.19 30.21 40.38 39.57 41.43 41.89 43.25 45.20 47.15 47.61
40.21 33.85 47.00 49.51 37.77 38.69 36.40 37.41 41.61 40.08 43.33 41.21 41.61 40.01 38.35 38.23 36.97 37.22 37.24 38.47 43.03 43.10 37.29 40.50 35.46 30.83 33.24 39.77 41.17 39.22 35.64 34.52 28.38 27.87 30.01 29.23 29.11 42.13 42.15 43.04 43.53 43.75 46.18 46.42 47.20
38.78 38.70 46.94 46.88 34.52 35.47 37.16 38.94 41.11 40.23 41.53 41.26 39.54 41.23 41.62 38.75 35.14 38.40 38.91 42.09 42.44 41.73 39.38 39.97 34.50 28.94 32.04 36.64 39.56 35.76 37.39 37.25 35.90 34.20 29.30 26.60 29.80 41.69 42.52 42.05 42.79 43.15 44.68 45.95 46.83
40.26 34.47 39.69 43.56 44.05 38.69 37.44 38.40 38.32 43.84 42.40 43.02 41.42 42.24 40.19 38.49 40.36 37.56 37.43 40.40 42.31 42.44 42.61 43.10 36.32 33.20 29.59 34.34 37.07 33.54 35.10 36.54 34.73 30.16 30.43 31.17 32.98 37.91 40.38 41.07 42.53 44.03 45.07 45.58 46.25
42.88 38.07 40.57 35.97 38.78 39.64 40.44 39.70 37.92 37.44 42.84 43.46 40.24 40.34 39.15 36.02 37.00 36.58 39.15 39.87 41.31 42.82 41.42 39.68 32.97 34.85 35.38 36.37 36.40 35.40 34.93 35.46 32.53 33.68 29.91 33.05 33.46 37.62 40.41 41.14 42.13 44.11 45.19 45.08 45.62
38.56 38.81 42.18 40.99 41.62 39.65 39.44 39.39 38.66 39.98 40.64 39.10 39.43 41.00 40.90 38.24 39.10 36.50 39.27 39.48 38.62 40.69 39.54 40.14 33.61 34.79 31.55 35.70 35.97 34.23 37.01 37.27 36.98 36.43 34.82 34.99 34.02 40.95 42.57 42.79 42.75 43.20 43.98 43.93 44.29
44.37 44.15 41.67 40.16 40.65 39.54 39.77 39.97 39.36 42.12 42.74 43.60 42.63 41.43 39.69 41.21 43.89 44.55 44.91 44.02 42.57 39.66 37.84 37.14 34.29 32.18 30.02 36.50 35.65 33.08 36.87 37.41 37.52 38.33 36.88 33.19 37.59 41.76 39.99 40.54 40.94 41.03 43.12 42.57 43.71
MSLP
1015.68 1014.97 1014.33 1013.81 1013.22 1013.16 1013.23 1013.31 1013.36 1013.21 1013.19 1013.06 1012.98 1012.87 1012.61 1012.12 1011.81 1012.26 1011.41 1010.83 1010.72 1011.57 1011.61 1010.97 1010.77 1010.49 1010.23 1009.82 1009.66 1009.69 1008.15 1006.59 1005.98 1005.32 1004.81 1004.64 1004.85 1005.43 1005.40 1005.15 1004.86 1004.84 1004.79 1005.48 1006.12
1015.55 1015.02 1014.47 1013.88 1013.34 1012.99 1012.93 1012.82 1012.95 1012.95 1013.01 1012.78 1012.74 1012.52 1012.29 1011.92 1011.57 1011.15 1010.60 1010.72 1011.04 1011.28 1011.35 1010.68 1010.29 1010.17 1009.86 1009.41 1009.77 1009.32 1008.12 1006.71 1006.07 1005.45 1005.15 1005.32 1005.64 1005.37 1005.65 1005.49 1004.94 1004.96 1005.10 1005.80 1006.04
1015.55 1015.08 1014.54 1013.98 1013.48 1012.95 1012.57 1012.49 1012.62 1012.71 1012.80 1012.68 1012.54 1012.33 1012.11 1012.06 1011.37 1009.89 1009.75 1010.56 1010.85 1011.10 1010.82 1010.53 1009.98 1009.99 1009.76 1009.26 1009.32 1008.93 1007.96 1007.02 1006.42 1006.70 1006.49 1006.30 1005.90 1005.95 1005.86 1005.43 1004.88 1004.68 1004.69 1005.31 1005.84
1015.48 1015.03 1014.68 1014.10 1013.64 1013.16 1012.60 1012.21 1012.19 1012.54 1012.52 1012.47 1012.30 1012.21 1012.07 1012.09 1010.68 1009.55 1010.32 1010.31 1010.61 1010.68 1010.38 1010.30 1010.22 1010.09 1009.67 1009.02 1009.09 1008.81 1008.29 1007.89 1007.28 1007.17 1007.58 1007.32 1006.84 1006.21 1006.11 1005.83 1005.34 1005.03 1004.84 1005.09 1005.77
1015.26 1014.89 1014.52 1014.00 1013.52 1013.07 1012.53 1012.04 1011.71 1012.00 1012.31 1012.33 1012.06 1012.14 1012.10 1011.38 1010.28 1010.04 1010.57 1010.28 1010.15 1010.63 1010.23 1010.07 1010.05 1009.69 1009.38 1008.91 1008.97 1008.97 1008.78 1008.14 1008.01 1008.09 1008.01 1008.09 1007.37 1006.87 1006.37 1006.30 1005.93 1005.54 1005.50 1005.79 1005.88
1014.83 1014.42 1014.11 1013.80 1013.27 1012.87 1012.33 1011.74 1011.43 1011.62 1012.03 1011.89 1012.06 1012.21 1011.65 1010.47 1010.07 1009.87 1010.07 1009.88 1009.55 1010.08 1010.35 1010.38 1010.10 1009.86 1009.79 1009.34 1009.38 1008.99 1009.18 1008.67 1008.20 1008.08 1008.14 1008.18 1007.40 1007.30 1006.58 1006.17 1005.93 1005.82 1005.61 1005.61 1005.54
1014.50 1014.01 1013.69 1013.37 1013.02 1012.60 1012.22 1011.69 1011.26 1011.27 1011.37 1011.71 1011.96 1011.95 1011.08 1009.93 1009.72 1009.82 1010.10 1009.83 1009.61 1009.56 1010.11 1010.54 1010.97 1011.04 1010.69 1010.21 1009.99 1009.98 1009.62 1008.63 1007.90 1007.88 1007.91 1007.95 1006.97 1006.21 1005.85 1005.81 1005.39 1005.16 1005.09 1005.11 1004.97
1014.14 1013.71 1013.34 1012.98 1012.66 1012.26 1011.89 1011.60 1011.19 1010.81 1011.10 1011.59 1011.80 1011.52 1010.26 1009.98 1009.98 1010.16 1010.06 1010.05 1009.87 1009.68 1010.43 1011.01 1011.25 1011.28 1010.59 1010.66 1010.32 1009.93 1009.24 1008.00 1006.53 1007.28 1007.36 1007.84 1005.94 1004.95 1004.95 1004.79 1004.65 1004.45 1004.38 1004.36 1004.24
1013.80 1013.49 1013.10 1012.70 1012.28 1011.89 1011.49 1011.25 1010.87 1010.64 1011.07 1011.48 1011.69 1011.15 1009.97 1010.55 1010.33 1010.07 1010.02 1009.60 1009.82 1009.90 1010.35 1011.17 1011.64 1011.30 1011.31 1010.92 1009.99 1009.35 1008.09 1007.24 1006.76 1006.83 1007.35 1007.27 1005.54 1004.70 1004.89 1004.52 1004.19 1004.18 1003.93 1003.66 1003.61
1013.55 1013.20 1012.92 1012.51 1012.02 1011.57 1011.21 1011.03 1010.53 1010.17 1011.13 1011.49 1011.23 1011.16 1009.88 1009.47 1009.88 1010.05 1010.00 1009.71 1009.80 1009.91 1010.46 1011.17 1011.33 1011.26 1011.03 1010.27 1008.77 1008.08 1008.18 1007.59 1007.07 1006.93 1007.44 1006.84 1005.76 1005.15 1004.79 1004.56 1004.23 1004.06 1003.89 1003.53 1003.09
1013.27 1012.98 1012.69 1012.15 1011.71 1011.46 1011.24 1010.96 1010.31 1010.58 1010.29 1009.50 1009.26 1008.90 1009.09 1009.66 1009.96 1009.97 1009.95 1009.96 1010.03 1010.31 1010.27 1011.48 1011.77 1010.92 1010.08 1009.88 1009.32 1009.13 1008.72 1007.98 1007.44 1007.44 1007.59 1006.81 1005.61 1004.93 1004.39 1003.91 1003.58 1003.49 1003.35 1003.17 1002.97
1012.88 1012.54 1012.25 1011.88 1011.48 1011.22 1011.11 1011.31 1010.32 1009.98 1009.61 1009.13 1008.98 1009.28 1009.40 1009.35 1009.54 1009.94 1010.01 1009.84 1010.34 1010.20 1010.82 1012.24 1011.50 1010.77 1010.36 1010.20 1010.00 1009.73 1009.38 1008.90 1008.48 1008.12 1008.14 1007.09 1004.80 1004.60 1003.69 1002.69 1002.68 1002.71 1002.60 1002.49 1002.37
1012.41 1011.94 1011.77 1011.58 1011.20 1010.63 1010.14 1010.48 1010.43 1010.70 1009.41 1009.32 1009.09 1009.03 1009.42 1009.71 1008.90 1009.67 1009.85 1009.61 1010.05 1010.10 1010.75 1010.93 1010.58 1010.77 1010.68 1010.67 1010.53 1010.01 1009.75 1009.42 1009.20 1008.87 1008.86 1007.92 1004.45 1002.50 1001.42 1001.48 1001.36 1001.37 1001.49 1001.66 1001.53
1011.91 1011.47 1011.44 1011.31 1010.97 1010.07 1009.43 1009.65 1010.37 1010.67 1010.02 1009.49 1009.18 1008.80 1009.32 1009.22 1009.11 1009.47 1009.66 1009.96 1010.17 1010.15 1010.86 1010.95 1010.44 1011.03 1010.87 1010.78 1010.67 1010.09 1009.86 1009.97 1010.18 1010.22 1008.94 1008.45 1004.76 1002.68 1001.34 1000.64 1000.51 1000.59 1000.58 1000.53 1000.66
1011.46 1011.16 1010.97 1011.14 1010.92 1010.10 1009.49 1009.09 1009.71 1010.71 1009.46 1009.18 1009.12 1008.80 1008.86 1008.88 1009.11 1009.81 1009.87 1010.42 1010.00 1010.07 1010.82 1010.59 1010.93 1010.93 1011.02 1010.69 1010.92 1010.69 1011.06 1011.11 1011.12 1010.85 1010.01 1008.17 1007.53 1001.81 1001.20 1000.27 1000.02 999.80 999.84 999.96 1000.07
1010.72 1010.64 1010.33 1010.02 1010.33 1009.28 1009.13 1009.96 1009.83 1009.55 1008.14 1008.73 1009.14 1008.94 1008.98 1008.90 1009.39 1009.96 1010.46 1010.69 1010.28 1010.64 1010.93 1010.61 1011.18 1011.09 1010.65 1010.92 1011.15 1011.52 1011.50 1011.87 1011.90 1011.87 1010.05 1006.96 1005.89 1001.47 1000.48 999.59 999.79 999.46 999.58 999.45 999.54
1009.98 1009.03 1007.93 1007.37 1008.44 1008.28 1009.39 1009.84 1009.50 1007.57 1007.33 1008.11 1008.29 1008.71 1008.93 1009.16 1009.59 1010.00 1010.22 1010.44 1010.28 1010.96 1010.76 1010.79 1010.56 1010.93 1011.05 1011.13 1011.39 1011.73 1012.15 1011.48 1011.46 1011.11 1007.86 1005.43 1004.39 1001.45 999.82 999.53 999.66 999.78 999.48 999.58 999.47
1009.13 1007.85 1007.03 1006.66 1007.76 1008.31 1009.29 1009.02 1007.88 1005.62 1005.98 1006.90 1007.78 1008.65 1008.96 1009.21 1009.37 1009.70 1010.01 1010.08 1010.03 1009.91 1009.75 1010.09 1009.62 1009.97 1010.75 1010.75 1010.53 1011.46 1011.89 1010.95 1009.60 1008.40 1006.31 1004.89 1002.46 1000.22 999.65 998.91 999.55 999.30 999.49 999.46 999.29
1008.40 1007.71 1007.56 1007.18 1007.59 1008.48 1008.86 1008.49 1006.71 1005.17 1005.53 1006.19 1007.95 1008.35 1008.38 1008.85 1008.82 1009.06 1009.22 1009.26 1009.12 1009.41 1009.60 1009.33 1009.54 1009.70 1010.15 1010.47 1010.86 1011.07 1011.56 1011.28 1010.79 1009.38 1007.93 1004.24 1001.84 1000.14 999.15 998.98 998.66 998.88 999.26 999.09 999.38
1008.70 1008.25 1007.94 1008.15 1008.33 1008.78 1008.02 1007.59 1006.57 1005.12 1005.06 1006.13 1006.35 1006.94 1007.34 1007.83 1008.09 1008.29 1008.53 1008.03 1008.57 1008.67 1008.99 1009.19 1009.49 1009.72 1010.05 1010.72 1010.53 1010.61 1010.96 1011.54 1011.54 1009.49 1006.53 1003.04 1001.00 998.93 998.56 998.45 998.42 998.26 998.45 998.92 999.31
1008.59 1008.71 1009.23 1008.86 1008.98 1008.92 1008.56 1007.61 1006.26 1005.70 1005.67 1005.54 1005.42 1005.79 1006.22 1006.83 1007.10 1007.52 1007.69 1007.63 1007.77 1007.99 1008.91 1009.28 1009.69 1010.18 1010.53 1009.91 1009.24 1010.52 1010.79 1011.31 1010.74 1009.70 1007.26 1004.10 999.81 999.47 999.03 998.89 998.58 998.44 998.47 998.96 999.48
1008.80 1009.10 1009.46 1009.04 1009.12 1008.81 1008.28 1007.67 1006.51 1006.43 1006.08 1005.48 1005.19 1005.03 1005.42 1006.08 1006.38 1006.62 1006.59 1007.17 1007.71 1007.99 1008.45 1009.19 1009.71 1009.71 1009.10 1008.78 1009.00 1009.11 1009.46 1010.07 1010.19 1008.55 1007.54 1005.54 999.97 1000.07 999.28 998.99 999.02 999.11 999.19 999.17 999.32
1009.09 1009.54 1010.08 1009.57 1008.50 1007.98 1008.13 1007.17 1006.55 1006.62 1006.00 1005.67 1005.36 1005.24 1005.41 1005.67 1006.19 1006.38 1006.76 1007.53 1008.00 1008.23 1008.31 1009.19 1009.84 1009.65 1008.60 1008.33 1008.29 1008.57 1008.79 1008.95 1009.00 1008.76 1006.21 1005.53 1000.47 999.98 999.61 999.94 999.54 999.41 999.28 999.21 999.34
1009.52 1009.48 1009.74 1008.99 1007.89 1007.36 1007.39 1006.79 1006.69 1006.44 1006.04 1005.63 1005.50 1005.38 1005.44 1005.70 1005.97 1006.37 1007.05 1007.79 1008.10 1008.40 1008.99 1009.24 1009.46 1009.55 1008.56 1007.66 1008.12 1008.87 1008.49 1008.46 1008.68 1007.76 1005.51 1003.25 1001.36 1000.20 1000.27 1000.14 1000.38 999.72 999.38 999.13 999.25
1009.16 1009.44 1009.16 1008.34 1007.64 1007.54 1007.10 1006.65 1006.54 1006.32 1006.17 1005.76 1005.70 1005.39 1005.30 1005.55 1006.06 1006.38 1006.89 1007.56 1008.21 1008.66 1009.21 1009.74 1009.71 1009.62 1009.07 1008.38 1008.06 1007.61 1007.18 1007.05 1007.34 1006.65 1005.96 1002.11 1002.23 1000.38 1000.28 1000.33 1001.19 1000.75 1000.10 999.72 999.96
1010.21 1009.82 1008.66 1007.78 1007.19 1006.88 1006.56 1006.26 1006.24 1006.23 1005.97 1005.81 1005.49 1005.59 1005.78 1005.69 1005.95 1006.15 1006.64 1007.08 1007.29 1008.57 1009.12 1009.72 1009.77 1009.77 1008.68 1007.66 1007.11 1006.34 1005.65 1005.51 1005.44 1005.03 1004.46 1003.41 1001.58 1001.25 1000.84 1001.05 1000.96 1001.33 1001.21 1001.06 1001.13
1011.16 1010.66 1010.01 1008.33 1007.00 1006.30 1006.16 1006.15 1006.23 1006.12 1006.43 1006.11 1005.91 1006.02 1006.17 1006.31 1006.51 1006.57 1006.69 1006.98 1007.42 1007.94 1008.81 1009.60 1010.17 1009.95 1007.62 1006.39 1005.71 1004.73 1004.58 1004.39 1004.25 1003.89 1003.41 1002.28 1000.95 1000.61 1000.87 1001.37 1001.63 1001.85 1001.76 1001.60 1001.31
Wind_Speed
23 24 24 22 18 14 14 13 13 12 11 10 10 11 14 16 9 13 16 8 12 7 4 6 9 9 8 9 8 10 13 15 21 21 14 13 9 12 11 13 8 10 14 9 4
23 24 24 25 22 18 16 14 14 12 11 9 10 10 11 6 13 13 8 3 8 13 11 10 11 10 11 11 8 12 13 20 16 16 17 13 10 12 8 15 16 11 10 3 3
20 22 24 24 24 21 18 16 14 13 11 8 8 8 7 9 10 10 17 11 13 13 14 14 8 10 13 9 13 12 18 15 14 9 10 15 14 13 13 15 14 16 14 9 4
21 20 22 22 22 22 21 16 14 13 11 8 5 7 5 6 6 7 2 8 15 12 12 12 12 13 11 11 13 16 14 18 17 7 10 15 15 17 18 18 17 12 14 6 9
21 20 19 21 22 22 20 19 16 13 11 8 5 6 3 6 6 8 3 6 11 14 14 13 14 13 11 9 9 13 16 13 11 13 15 16 19 19 18 17 16 18 12 14 16
21 20 19 20 20 21 21 19 16 14 11 8 5 6 9 12 6 4 4 5 11 18 15 12 6 4 5 6 9 2 10 14 13 15 16 18 21 19 17 20 22 22 21 20 20
21 22 19 19 22 22 21 20 14 16 12 9 7 8 9 10 0 4 6 3 3 14 14 7 4 4 6 5 9 9 15 14 18 18 15 11 19 23 25 23 23 23 21 22 23
21 21 20 19 20 21 19 21 24 16 13 11 8 6 7 3 4 3 6 8 5 7 9 8 5 7 6 3 5 6 11 10 8 4 11 12 14 7 5 13 18 22 20 21 22
21 20 21 21 21 21 18 19 22 16 15 12 8 8 7 6 7 12 8 9 9 8 8 8 5 5 4 10 9 11 9 13 9 6 6 14 11 7 3 13 14 13 15 15 19
19 19 18 19 21 18 16 17 22 15 11 6 2 5 8 7 7 7 10 9 10 13 12 7 6 7 10 11 7 8 13 10 10 4 8 14 19 18 17 17 18 17 18 17 16
17 18 18 16 18 16 10 4 6 8 9 8 11 1 8 9 10 9 13 14 10 13 8 7 6 13 16 15 16 6 9 11 10 7 15 18 20 19 18 20 21 20 19 20 21
18 19 16 15 17 17 8 2 10 6 7 8 5 6 7 9 8 11 15 11 12 12 11 5 14 16 12 9 11 12 14 14 14 12 12 17 28 23 25 26 22 22 23 23 22
20 15 14 15 19 13 11 13 7 12 5 12 10 11 7 8 7 17 17 11 16 15 16 11 2 4 14 11 11 13 14 13 14 14 16 20 26 22 12 14 17 18 21 23 25
18 16 12 16 14 8 8 7 4 2 3 9 9 7 7 7 5 14 14 8 5 14 14 13 8 5 8 11 11 12 9 10 11 8 7 3 12 9 11 12 10 11 14 16 17
18 18 18 12 10 7 6 5 8 4 7 13 10 6 12 9 16 12 13 3 10 8 8 4 6 12 12 14 10 6 3 4 6 10 14 15 9 10 11 17 15 16 13 12 12
20 20 24 14 8 12 4 7 2 4 5 8 7 11 16 12 6 13 9 6 1 6 10 9 1 7 9 6 11 3 3 6 6 4 9 11 16 19 14 11 14 13 12 11 9
25 28 23 9 9 10 9 5 4 6 13 10 9 13 16 13 11 14 14 11 8 6 9 11 16 8 10 7 7 9 2 2 5 6 10 5 9 20 21 21 16 12 14 15 10
29 22 10 4 10 14 3 6 7 11 7 8 14 17 9 15 11 14 14 13 15 11 4 8 7 19 14 14 5 13 11 5 7 8 14 16 12 14 15 15 18 13 16 11 8
23 5 2 3 10 6 4 5 2 10 12 13 17 12 9 17 8 12 14 12 14 14 8 6 4 2 7 6 11 7 10 14 13 16 13 13 20 23 26 26 25 18 19 14 9
4 5 5 11 8 5 0 1 2 5 17 19 7 7 10 18 10 12 14 14 11 17 12 1 3 6 6 5 11 12 1 3 5 7 11 14 21 14 16 16 17 12 17 17 8
2 3 3 11 6 1 2 1 5 16 8 0 7 9 11 15 12 14 16 5 17 14 16 6 4 6 3 11 9 9 12 7 8 8 8 14 13 12 14 10 10 12 11 6 7
3 3 4 7 3 3 1 3 10 8 4 2 3 3 15 16 11 12 9 3 6 9 12 10 2 6 12 9 8 13 14 16 9 10 9 14 23 14 14 11 10 10 9 10 10
3 3 2 4 3 4 2 1 5 5 2 4 3 1 5 11 6 6 5 5 8 12 10 11 6 4 4 3 8 12 17 17 18 17 22 17 16 6 5 10 7 8 9 11 13
1 2 2 3 4 8 3 7 6 2 4 4 8 8 9 11 3 8 5 5 9 11 9 7 5 8 8 9 10 8 16 19 16 11 20 24 29 26 22 17 18 16 16 17 11
3 4 2 2 5 9 2 3 7 4 1 2 3 1 3 4 4 4 5 6 5 7 6 5 5 10 17 22 20 21 24 24 20 21 18 31 25 24 19 14 17 22 19 13 9
3 4 4 3 10 9 1 6 4 5 1 2 3 6 3 4 1 4 5 7 5 10 11 4 4 2 12 21 21 20 23 18 17 19 20 25 31 23 18 9 8 11 14 11 10
2 3 4 3 7 7 6 4 2 3 4 4 3 5 3 2 3 2 4 4 0 3 10 4 2 2 7 10 20 10 4 6 8 11 9 10 18 17 12 11 14 15 16 12 13
Wind_Direction
340 343 345 339 307 276 248 249 254 258 264 275 282 288 291 285 158 174 215 202 225 170 268 208 210 204 206 220 244 248 250 237 240 246 251 262 246 232 247 261 216 219 255 70 93
341 338 340 342 336 307 262 240 250 253 261 270 282 293 309 196 190 211 216 196 177 199 226 208 202 196 206 206 200 224 228 239 252 262 253 265 216 222 220 233 238 221 226 185 166
339 335 331 335 340 332 303 235 240 250 254 257 273 290 311 249 237 237 197 184 206 206 227 231 250 211 226 212 208 220 245 242 243 290 298 281 256 246 261 253 227 225 221 181 227
331 335 326 323 331 334 327 255 230 239 244 249 259 282 292 224 226 105 114 218 207 211 212 205 209 210 220 201 220 239 251 258 273 292 251 255 263 257 249 253 265 248 260 271 244
329 331 322 321 324 327 322 313 233 228 229 232 244 264 225 221 262 121 219 188 201 202 202 192 204 212 217 207 215 237 256 253 254 266 260 266 261 262 260 258 259 269 260 256 252
323 322 322 321 319 322 326 320 250 219 213 216 222 236 239 244 118 171 208 199 212 190 205 195 234 241 279 243 216 309 270 269 260 259 252 256 260 255 248 250 255 257 258 252 250
322 320 315 316 314 316 321 315 289 225 198 203 197 223 236 231 112 165 218 250 212 184 193 188 184 185 214 230 237 263 265 264 248 241 237 252 262 250 250 252 255 249 248 247 248
319 318 316 313 315 309 310 314 326 217 190 182 189 214 249 71 253 199 199 174 152 138 159 161 163 248 255 73 214 236 243 255 125 226 235 215 262 275 248 234 250 247 247 250 248
313 319 317 308 309 307 304 317 300 212 189 167 189 220 235 122 204 213 212 179 153 136 126 146 179 217 177 231 226 216 258 219 255 219 256 211 270 281 251 268 257 261 255 247 247
319 311 312 311 308 310 308 315 290 171 182 150 328 196 204 199 151 176 197 171 162 137 122 149 194 228 217 219 226 237 219 253 258 155 234 268 269 271 273 269 261 263 263 265 256
310 312 304 317 313 318 345 358 166 173 202 182 177 156 135 118 147 177 171 173 166 167 149 176 211 221 230 225 257 299 300 277 275 292 281 278 275 276 274 263 259 258 256 255 254
311 301 306 311 317 311 309 280 276 337 164 217 227 127 147 169 131 158 172 166 181 182 153 151 229 239 254 267 246 253 261 267 278 282 297 292 284 286 273 263 260 257 255 255 254
311 306 306 319 313 290 251 209 290 333 212 183 186 167 166 203 148 169 190 191 192 197 194 202 192 246 233 225 239 243 256 271 279 309 300 280 283 260 262 242 241 248 248 250 254
319 319 301 321 294 324 276 188 214 193 164 149 193 206 176 202 151 158 189 166 190 204 195 230 197 196 215 230 232 262 270 271 282 284 274 82 293 290 283 262 253 265 252 247 246
318 317 317 315 303 275 331 95 122 201 175 147 142 139 174 187 124 173 178 179 176 185 180 171 206 212 223 233 225 241 37 276 286 276 297 256 247 257 280 277 255 254 236 254 247
322 319 296 280 243 255 263 172 103 161 158 146 131 169 165 185 135 146 166 240 249 202 222 264 123 215 220 221 219 72 243 268 261 280 256 245 222 279 269 292 313 280 280 262 262
316 303 300 239 180 202 135 163 186 234 154 140 162 161 169 176 154 174 178 180 174 168 216 233 223 215 234 213 197 222 190 229 210 200 246 311 248 243 278 293 274 297 282 292 307
325 319 312 139 179 139 134 107 265 123 121 162 133 149 175 170 183 174 176 193 212 224 166 198 193 196 190 216 180 208 202 228 270 261 296 311 251 246 266 278 304 280 270 269 281
334 343 1 133 162 119 171 146 324 133 131 131 139 153 146 192 150 178 195 202 203 209 209 192 251 189 158 189 223 150 212 249 292 274 267 253 266 271 267 269 273 257 273 266 283
343 327 86 111 117 104 107 240 281 115 129 145 134 186 160 186 161 190 185 202 208 211 217 351 255 171 171 216 227 215 46 169 206 273 273 263 275 269 272 294 270 251 250 248 265
123 45 109 129 136 65 153 29 114 128 119 272 144 165 157 176 188 185 184 130 196 190 199 197 235 123 135 206 201 190 233 217 287 246 274 289 264 301 303 304 324 296 236 232 270
65 71 176 169 113 226 94 1 122 127 320 54 157 140 156 171 183 181 177 82 188 185 189 201 196 248 243 247 232 260 223 226 230 227 227 262 267 275 265 241 246 268 263 286 301
59 91 228 283 144 145 352 191 108 157 189 170 136 162 144 157 166 191 187 110 178 180 174 160 207 280 221 163 233 238 244 248 243 264 253 263 262 19 318 296 272 276 292 276 260
126 89 61 240 272 124 205 124 118 58 66 84 106 132 134 162 38 175 156 162 185 205 67 181 214 239 279 306 327 244 249 256 258 251 266 248 267 267 270 273 307 300 278 282 311
348 68 211 157 153 159 149 114 137 163 105 112 122 181 148 145 170 164 167 148 174 182 177 219 242 255 266 276 280 273 272 271 256 254 253 277 276 274 294 310 276 282 298 288 309
31 354 343 172 166 186 66 136 135 103 61 120 158 151 142 150 138 161 194 214 208 177 202 208 262 315 273 265 258 269 280 282 266 259 254 261 269 277 289 345 327 316 303 307 302
0 277 275 217 184 177 200 179 125 132 51 47 107 126 182 53 339 337 250 285 328 177 198 193 214 266 270 320 308 271 262 270 262 253 254 267 273 284 286 285 294 290 287 294 300